Tracking 26321 objects as of 28-Nov-2022
HD Live streaming from Space Station
objects crossing your sky now

ATLAS 5 CENTAUR DEB

Track ATLAS 5 CENTAUR DEB now!


NORAD ID: 46850
Int'l Code: 2018-079DF
Perigee: 8,402.5 km
Apogee: 35,861.2 km
Inclination: 10.8 °
Period: 798.2 minutes
Semi major axis: 28502 km
RCS: Unknown
Launch date: October 17, 2018
Source: United States (US)
Launch site: AIR FORCE EASTERN TEST RANGE (AFETR)

Note: This is SATELLITE DEBRIS
aabbcc
Your satellite tracking list
Your tracking list is empty




NASA's NSSDC Master Catalog

Two Line Element Set (TLE):
1 46850U 18079DF  22329.29628484 -.00000053  00000-0  00000+0 0  9997
2 46850  10.7833 157.0719 4816836  84.4906 326.7076  1.80414417 14033
Source of the keplerian elements: AFSPC